Home   Weather   Lagos   Past weeks
Flag for Nigeria

Past Weather in Lagos, Nigeria — Yesterday and Last 2 Weeks

Now
77 °F

Passing clouds.


Feels Like: 78 °F
Forecast: 82 / 74 °F
Wind: 3 mph from Northwest

Location: Lagos / Ikeja

Current Time: Jul 19, 2019 at 3:19:49 am

Latest Report: Jul 19, 2019 at 2:00 am


Visibility: N/A

Pressure: 29.95 "Hg

Humidity: 94%

Dew Point: 75 °F

Location of LagosLocation

Past Weather in Lagos — Graph

°F

Lagos Temperature Yesterday

Maximum temperature yesterday: 81 °F (at 11:00 am)
Minimum temperature yesterday: 75 °F (at 3:00 am)
Average temperature yesterday: 78 °F

High & Low Weather Summary for the Past Weeks

 TemperatureHumidityPressure
High88 °F (Jul 17, 4:00 pm)100% (Jul 4, 4:00 am)30.07 "Hg (Jul 4, 4:00 am)
Low72 °F (Jul 17, 5:00 am)66% (Jul 14, 1:00 pm)29.86 "Hg (Jul 15, 4:00 pm)
Average79 °F88%29.97 "Hg
* Reported Jul 4 1:00 am — Jul 19 1:00 am, Lagos. Weather by CustomWeather, © 2019

Note: Actual official high and low records may vary slightly from our data, if they occured in-between our weather recording intervals... More about our weather records

Advertising

Lagos Weather History for the Previous 24 Hours

Scroll right to see more
 ConditionsComfort  
Time TempWeatherWind HumidityBarometerVisibility
1:00 am
Fri, Jul 19
77 °FPassing clouds.6 mph94%29.98 "HgN/A
12:00 am77 °FPassing clouds.5 mph94%29.98 "HgN/A
11:00 pm
Thu, Jul 18
77 °FPassing clouds.5 mph94%29.98 "HgN/A
10:00 pm77 °FPassing clouds.6 mph94%29.98 "HgN/A
9:00 pm77 °FPassing clouds.6 mph89%29.95 "HgN/A
8:00 pm77 °FPassing clouds.6 mph89%29.92 "HgN/A
7:00 pm79 °FPassing clouds.6 mph84%29.89 "HgN/A
6:00 pm81 °FPassing clouds.5 mph79%29.89 "HgN/A
5:00 pm81 °FPartly sunny.5 mph84%29.89 "Hg5 mi
4:00 pm81 °FPartly sunny.2 mph84%29.92 "HgN/A
3:00 pm81 °FPartly sunny.5 mph84%29.95 "HgN/A
2:00 pm81 °FPartly sunny.6 mph84%29.95 "HgN/A
1:00 pm81 °FPartly sunny.8 mph84%29.98 "HgN/A
12:00 pm81 °FPartly sunny.8 mph79%29.98 "HgN/A
11:00 am81 °FPartly sunny.8 mph79%29.98 "HgN/A
10:00 am79 °FPartly sunny.5 mph84%29.98 "HgN/A
9:00 am77 °FScattered clouds.5 mph89%29.98 "HgN/A
8:00 am77 °FScattered clouds.5 mph89%29.95 "HgN/A
7:00 am75 °FScattered clouds.7 mph94%29.95 "HgN/A
6:00 am75 °FPassing clouds.6 mph94%29.95 "HgN/A
5:00 am75 °FPassing clouds.3 mph94%29.95 "HgN/A
4:00 am75 °FPassing clouds.5 mph94%29.95 "HgN/A
3:00 am75 °FPassing clouds.6 mph94%29.95 "HgN/A
Weather by CustomWeather, © 2019

See weather overview